Year,Month,Day,Hour,Minute,Value (Times are PST for windgust in km/hr)
2014,11,06,00,07,1.60
2014,11,06,00,11,1.60
2014,11,06,00,23,1.60
2014,11,06,02,41,1.60
2014,11,06,02,43,1.60
2014,11,06,02,51,1.60
2014,11,06,02,53,1.60
2014,11,06,02,55,1.60
2014,11,06,02,57,1.60
2014,11,06,02,58,1.60
2014,11,06,03,09,1.60
2014,11,06,03,11,1.60
2014,11,06,03,19,3.20
2014,11,06,03,21,1.60
2014,11,06,03,22,1.60
2014,11,06,03,28,1.60
2014,11,06,03,29,3.20
2014,11,06,03,30,3.20
2014,11,06,03,31,3.20
2014,11,06,03,32,1.60
2014,11,06,03,33,1.60
2014,11,06,03,46,1.60
2014,11,06,03,57,1.60
2014,11,06,04,07,1.60
2014,11,06,04,09,3.20
2014,11,06,04,10,6.40
2014,11,06,04,11,3.20
2014,11,06,04,12,1.60
2014,11,06,04,13,1.60
2014,11,06,04,14,1.60
2014,11,06,04,15,4.80
2014,11,06,04,16,1.60
2014,11,06,04,29,1.60
2014,11,06,04,31,1.60
2014,11,06,04,48,1.60
2014,11,06,04,49,1.60
2014,11,06,04,51,1.60
2014,11,06,04,52,1.60
2014,11,06,05,25,1.60
2014,11,06,06,10,1.60
2014,11,06,06,38,1.60
2014,11,06,07,15,1.60
2014,11,06,07,16,1.60
2014,11,06,07,17,1.60
2014,11,06,07,23,1.60
2014,11,06,07,24,3.20
2014,11,06,07,25,3.20
2014,11,06,07,26,3.20
2014,11,06,07,27,1.60
2014,11,06,07,28,1.60
2014,11,06,07,29,4.80
2014,11,06,07,31,1.60
2014,11,06,07,32,4.80
2014,11,06,07,33,1.60
2014,11,06,07,37,1.60
2014,11,06,07,41,1.60
2014,11,06,07,42,1.60
2014,11,06,07,43,3.20
2014,11,06,07,44,1.60
2014,11,06,07,45,1.60
2014,11,06,07,46,1.60
2014,11,06,07,49,1.60
2014,11,06,07,50,4.80
2014,11,06,07,51,1.60
2014,11,06,08,10,1.60
2014,11,06,08,11,1.60
2014,11,06,08,25,3.20
2014,11,06,08,30,1.60
2014,11,06,08,31,3.20
2014,11,06,08,32,6.40
2014,11,06,08,33,6.40
2014,11,06,08,37,1.60
2014,11,06,08,38,16.10
2014,11,06,08,39,3.20
2014,11,06,08,41,1.60
2014,11,06,08,43,6.40
2014,11,06,08,44,9.60
2014,11,06,08,45,1.60
2014,11,06,08,46,3.20
2014,11,06,08,47,1.60
2014,11,06,08,48,6.40
2014,11,06,08,49,6.40
2014,11,06,08,50,4.80
2014,11,06,08,51,3.20
2014,11,06,08,52,3.20
2014,11,06,08,53,3.20
2014,11,06,08,54,1.60
2014,11,06,08,55,8.10
2014,11,06,08,56,8.10
2014,11,06,08,58,4.80
2014,11,06,08,59,3.20
2014,11,06,09,00,6.40
2014,11,06,09,01,8.10
2014,11,06,09,03,3.20
2014,11,06,09,04,1.60
2014,11,06,09,05,3.20
2014,11,06,09,06,1.60
2014,11,06,09,07,1.60
2014,11,06,09,08,3.20
2014,11,06,09,11,4.80
2014,11,06,09,12,6.40
2014,11,06,09,13,1.60
2014,11,06,09,14,1.60
2014,11,06,09,15,3.20
2014,11,06,09,16,6.40
2014,11,06,09,17,6.40
2014,11,06,09,18,4.80
2014,11,06,09,19,1.60
2014,11,06,09,20,1.60
2014,11,06,09,21,1.60
2014,11,06,09,22,8.10
2014,11,06,09,23,4.80
2014,11,06,09,24,6.40
2014,11,06,09,26,1.60
2014,11,06,09,27,3.20
2014,11,06,09,28,8.10
2014,11,06,09,29,3.20
2014,11,06,09,32,4.80
2014,11,06,09,33,4.80
2014,11,06,09,34,8.10
2014,11,06,09,35,4.80
2014,11,06,09,36,1.60
2014,11,06,09,37,8.10
2014,11,06,09,38,9.60
2014,11,06,09,39,1.60
2014,11,06,09,40,1.60
2014,11,06,09,41,3.20
2014,11,06,09,42,6.40
2014,11,06,09,43,4.80
2014,11,06,09,44,1.60
2014,11,06,09,45,17.70
2014,11,06,09,46,8.10
2014,11,06,09,47,14.50
2014,11,06,09,48,8.10
2014,11,06,09,49,1.60
2014,11,06,09,50,3.20
2014,11,06,09,51,6.40
2014,11,06,09,53,6.40
2014,11,06,09,54,20.90
2014,11,06,09,55,17.70
2014,11,06,09,56,14.50
2014,11,06,09,57,14.50
2014,11,06,09,58,6.40
2014,11,06,09,59,19.30
2014,11,06,10,00,14.50
2014,11,06,10,01,4.80
2014,11,06,10,02,8.10
2014,11,06,10,03,16.10
2014,11,06,10,05,6.40
2014,11,06,10,06,11.30
2014,11,06,10,07,3.20
2014,11,06,10,08,6.40
2014,11,06,10,09,8.10
2014,11,06,10,10,14.50
2014,11,06,10,11,24.20
2014,11,06,10,12,8.10
2014,11,06,10,13,30.60
2014,11,06,10,14,9.60
2014,11,06,10,15,24.20
2014,11,06,10,16,19.30
2014,11,06,10,17,11.30
2014,11,06,10,18,4.80
2014,11,06,10,19,22.50
2014,11,06,10,20,14.50
2014,11,06,10,21,20.90
2014,11,06,10,22,11.30
2014,11,06,10,23,9.60
2014,11,06,10,24,14.50
2014,11,06,10,25,19.30
2014,11,06,10,26,24.20
2014,11,06,10,27,24.20
2014,11,06,10,28,24.20
2014,11,06,10,29,46.70
2014,11,06,10,30,16.10
2014,11,06,10,31,3.20
2014,11,06,10,32,17.70
2014,11,06,10,33,32.20
2014,11,06,10,34,25.70
2014,11,06,10,35,24.20
2014,11,06,10,36,43.50
2014,11,06,10,37,35.40
2014,11,06,10,38,29.00
2014,11,06,10,39,19.30
2014,11,06,10,40,25.70
2014,11,06,10,41,27.40
2014,11,06,10,42,33.80
2014,11,06,10,43,25.70
2014,11,06,10,44,24.20
2014,11,06,10,45,16.10
2014,11,06,10,46,12.90
2014,11,06,10,47,6.40
2014,11,06,10,48,9.60
2014,11,06,10,49,27.40
2014,11,06,10,50,33.80
2014,11,06,10,51,48.30
2014,11,06,10,52,24.20
2014,11,06,10,53,14.50
2014,11,06,10,54,19.30
2014,11,06,10,58,22.50
2014,11,06,10,59,30.60
2014,11,06,11,00,22.50
2014,11,06,11,01,41.80
2014,11,06,11,02,53.10
2014,11,06,11,03,22.50
2014,11,06,11,04,40.20
2014,11,06,11,05,43.50
2014,11,06,11,06,33.80
2014,11,06,11,07,32.20
